CZ-6A DEB

Satellite information

Favourite Embed

Satellite Type and Status

DEBRISIN ORBIT

Key statistics

Satellite CZ-6A DEB at a glance.

Uptime

1073

Days in orbit

Revolutions

≈ 14.1

Per day

Orbit

SSO

Sun Synchronous Orbit

Inclination

98.8

Latest

Satellite identification and parameters

Extended collection of information and parameters for CZ-6A DEB.

Object identification

Identified? True

Debris? True

Object name: CZ-6A DEB

International designator: 2022-151AGQ

Object number (NORAD): 56664

Object ID (CCSDS): 56664

Country: PEOPLES REPUBLIC OF CHINA (PRC)

Current information (Y/N): Y

RCS size: SMALL

Orbital parameters

Period: 101.891 minutes

Inclination: 98.8218 deg

SMA: 7226.328 km

Apoapsis: 871.662 km

Periapsis: 824.723 km

RAAN: 294.5372 deg

Eccentricy: 0.00324777

Argument of periapsis: 287.8665 deg

Mean anomaly: 71.8967 deg

Mean motion: 14.13273719 rev/day

Mean motion (dot): 0.00000735 rev/day2

B* drag term: 0.0004136882 1/REarth

Two-line elements (TLE)

Creation date: Oct. 18, 2025, 10:30 a.m.

Reference frame: TEME

Reference center: EARTH

Epoch: Oct. 18, 2025, 6:49 a.m. UTC

TLE line 0: 0 CZ-6A DEB

TLE line 1: 1 56664U 22151AGQ 25291.28469433 .00000735 00000-0 41369-3 0 9997

TLE line 2: 2 56664 98.8218 294.5372 0032478 287.8665 71.8967 14.13273719133309

Live tracking on map

Real-time ground track for satellite CZ-6A DEB.

In-orbit conjunctions

A list of the most updated potential collisions computed for object CZ-6A DEB.

Target Orbit TCA Probability of collision Miss distance Type
COSMOS 2251 DEB LEO 2025-06-06 13:34:14 0.0002085628 315.0 (m) DEBRIS
METEOR 2-7 DEB LEO 2025-01-28 01:54:42 0.0001116069 155.0 (m) DEBRIS
SCOUT A DEB SSO 2024-10-06 02:48:32 0.000107871 249.0 (m) DEBRIS

Associated space launch

Chinese satellite reported for atmospheric/ocean/environmental/spatial parameter research purposes, details TBD.

CZ-6A DEB was lifted into orbit during the mission ‘Long March 6A | Yunhai 3’, on board a Long March 6A space rocket.

The launch took place on Nov. 11, 2022, 10:52 p.m. from Launch Complex 9A.

For more information about the launch, click the button.

Launch to space Long March 6A | Yunhai 3
Long March 6A | Yunhai 3

Agency: N/A

Status: Launch Successful

Launch date: Nov. 11, 2022, 10:52 p.m. UTC

Rocket: Long March 6A

Launch pad: Launch Complex 9A

Location: Taiyuan Satellite Launch Center, People's Republic of China

...

Latest news about this satellite

There are no fresh news available about this satellite. Check back as we update our databases every day.


Newsletter sign-up

Weekly statistics, charts and insights to help you stay on top of the space industry.